カタログに戻る

COSMOS 412

運用中軍事LEO
NORAD 5211·PAYLOAD·🇷🇺 Russia

打ち上げ May 7, 1971 から Plesetsk Cosmodrome

Loading…

次のパス (今後24時間)

TLE

最新Source: Space-Track

元期: Sep 14, 2026, 06:27 UTC

1 05211U 71041B   26257.26883568  .00000001  00000-0  12642-3 0  9999
2 05211  74.0197 347.5288 0035786 321.3328  65.9908 12.39885209744602

AllMySatでCOSMOS 412をリアルタイム追跡

Download on the App Store